| time (UTC) | temp F | wind direction | speed knots | gust knots | rain 1hr in | rain 24hr in | rain mn in | humidity % | barometer mb |
| 20260505001527 | 53 | 152 | 0.0 | 0.0 | 0.09 | 0.65 | 0.12 | 95 | 1010.9 |
| 20260505000028 | 53 | 148 | 0.0 | 1.7 | 0.09 | 0.64 | 0.10 | 95 | 1010.9 |
| 20260504234524 | 53 | 155 | 1.7 | 3.5 | 0.07 | 0.61 | 0.08 | 95 | 1011.1 |
| 20260504233022 | 53 | 139 | 1.7 | 6.1 | 0.06 | 0.60 | 0.06 | 95 | 1011.2 |
| 20260504231520 | 53 | 144 | 1.7 | 5.2 | 0.03 | 0.56 | 0.03 | 95 | 1011.2 |
| 20260504230020 | 53 | 119 | 2.6 | 5.2 | 0.01 | 0.54 | 0.01 | 95 | 1011.3 |
| 20260504224521 | 53 | 168 | 1.7 | 5.2 | 0.01 | 0.54 | 0.01 | 95 | 1011.2 |
| 20260504223019 | 53 | 142 | 1.7 | 4.3 | 0.00 | 0.54 | 0.00 | 96 | 1011.3 |
| 20260504221517 | 53 | 154 | 0.9 | 2.6 | 0.00 | 0.54 | 0.00 | 95 | 1011.3 |
| 20260504220020 | 53 | 141 | 0.9 | 2.6 | 0.00 | 0.54 | 0.00 | 95 | 1011.3 |
| 20260504214521 | 52 | 69 | 0.0 | 1.7 | 0.00 | 0.54 | 0.54 | 95 | 1011.3 |
| 20260504213014 | 52 | 66 | 0.9 | 1.7 | 0.00 | 0.54 | 0.54 | 95 | 1011.3 |
| 20260504211524 | 52 | 66 | 0.0 | 0.0 | 0.00 | 0.54 | 0.54 | 95 | 1011.4 |
| 20260504210014 | 52 | 68 | 0.9 | 3.5 | 0.00 | 0.54 | 0.54 | 94 | 1011.1 |
| 20260504204517 | 53 | 111 | 0.9 | 2.6 | 0.00 | 0.54 | 0.54 | 94 | 1011.2 |
| 20260504203012 | 53 | 158 | 0.0 | 2.6 | 0.00 | 0.54 | 0.54 | 94 | 1011.4 |
| 20260504201510 | 53 | 128 | 0.9 | 2.6 | 0.00 | 0.54 | 0.54 | 94 | 1011.5 |
| 20260504200010 | 53 | 202 | 0.0 | 0.0 | 0.00 | 0.54 | 0.54 | 94 | 1011.4 |
| 20260504194510 | 53 | 202 | 0.0 | 0.9 | 0.00 | 0.54 | 0.54 | 92 | 1011.5 |
| 20260504193044 | 54 | 202 | 0.0 | 1.7 | 0.00 | 0.54 | 0.54 | 92 | 1011.4 |
| 20260504191554 | 54 | 202 | 0.9 | 3.5 | 0.00 | 0.54 | 0.54 | 92 | 1011.3 |
| 20260504190046 | 54 | 221 | 1.7 | 4.3 | 0.00 | 0.54 | 0.54 | 92 | 1011.4 |
| 20260504184557 | 55 | 199 | 1.7 | 3.5 | 0.00 | 0.54 | 0.54 | 92 | 1011.3 |
| 20260504183043 | 55 | 219 | 1.7 | 4.3 | 0.00 | 0.54 | 0.54 | 92 | 1011.4 |
| 20260504181541 | 55 | 208 | 2.6 | 5.2 | 0.01 | 0.54 | 0.54 | 92 | 1011.4 |
| 20260504180042 | 55 | 184 | 4.3 | 7.0 | 0.01 | 0.54 | 0.54 | 92 | 1011.6 |
| 20260504174540 | 55 | 152 | 2.6 | 6.1 | 0.01 | 0.54 | 0.54 | 92 | 1011.5 |
| 20260504173037 | 56 | 163 | 3.5 | 7.0 | 0.02 | 0.54 | 0.54 | 92 | 1011.7 |
| 20260504171535 | 56 | 150 | 4.3 | 9.6 | 0.01 | 0.53 | 0.53 | 91 | 1011.9 |
| 20260504081506 | 52 | 130 | 1.7 | 3.5 | 0.12 | 0.28 | 0.28 | 92 | 1014.5 |
| 20260504044536 | 56 | 196 | 1.7 | 7.0 | 0.00 | 0.02 | 0.00 | 72 | 1013.1 |
| 20260504043034 | 57 | 196 | 5.2 | 9.6 | 0.00 | 0.02 | 0.00 | 69 | 1013.1 |
| 20260504041533 | 57 | 190 | 3.5 | 7.0 | 0.00 | 0.02 | 0.00 | 67 | 1013.0 |
| 20260504040036 | 57 | 175 | 5.2 | 11.3 | 0.00 | 0.02 | 0.00 | 66 | 1013.0 |
| 20260504034535 | 57 | 151 | 3.5 | 9.6 | 0.00 | 0.02 | 0.00 | 66 | 1013.0 |
| 20260504033046 | 57 | 152 | 3.5 | 11.3 | 0.00 | 0.02 | 0.00 | 67 | 1013.0 |
| 20260504031532 | 57 | 140 | 1.7 | 4.3 | 0.00 | 0.02 | 0.00 | 68 | 1013.0 |
| 20260504030031 | 57 | 132 | 0.9 | 4.3 | 0.00 | 0.02 | 0.00 | 67 | 1013.0 |
| 20260504024542 | 57 | 135 | 2.6 | 6.1 | 0.00 | 0.02 | 0.00 | 67 | 1013.1 |
| 20260504023029 | 57 | 167 | 2.6 | 8.7 | 0.00 | 0.02 | 0.00 | 67 | 1013.2 |
| 20260504021528 | 57 | 162 | 5.2 | 10.4 | 0.00 | 0.02 | 0.00 | 69 | 1013.1 |
| 20260504020028 | 56 | 138 | 3.5 | 7.8 | 0.00 | 0.02 | 0.00 | 72 | 1013.1 |
| 20260504014527 | 55 | 116 | 3.5 | 8.7 | 0.00 | 0.02 | 0.00 | 75 | 1013.0 |
| 20260504013025 | 55 | 117 | 1.7 | 3.5 | 0.00 | 0.02 | 0.00 | 79 | 1013.1 |
| 20260504011524 | 55 | 148 | 0.9 | 3.5 | 0.00 | 0.02 | 0.00 | 75 | 1013.0 |
| 20260504010028 | 55 | 135 | 1.7 | 2.6 | 0.00 | 0.02 | 0.00 | 73 | 1013.0 |
| 20260504004537 | 55 | 117 | 1.7 | 2.6 | 0.00 | 0.02 | 0.00 | 73 | 1013.1 |
| 20260504003019 | 55 | 129 | 0.9 | 3.5 | 0.00 | 0.02 | 0.00 | 72 | 1013.3 |